Location: Gälforsberget
(66.6500°N, 22.4167°E)
Time: 15:06:18
(UTC+00:00)

Cosmos 1315 Rocket - Pass Details

Date: 11 April 2026
Orbit: 490 x 510 km, 81.2° (Epoch: 17 May)

Event Time Altitude Azimuth Distance (km) Brightness Sun altitude
Exits shadow 20:41:12 17° 127° (SE) 1,341 4.2 -12.2°
Maximum altitude 20:42:53 23° 91° (E) 1,121 4.1 -12.3°
Drops below altitude 10° 20:45:55 10° 38° (NE) 1,730 5.7 -12.4°
Sets 20:48:20 0° 24° (NNE) 2,615 6.9 -12.5°
